When you browse on this site, cookies collect data to enhance your experience and personalize the content and advertising you see.
Visit our Privacy Policy to learn more. By continuing to use the site, you agree to this use of cookies and data.
  • In Denmark
  • List of Countries
  • For 7 days
  • Water Temperature
  • Satellite Maps
  • Weather Map
  • Weather Widgets
  • user-avatar
    Login

    Hourly Weather Irbid

    Today, 25 April, Thursday

    Time Temperature Precipitation Wind Pressure Humidity
    00:00 +14°C° 0 mm 0 mps 716 mmHg 53%
    01:00 +14°C° 0 mm 0 mps 716 mmHg 53%
    02:00 +15°C° 0 mm 1 mps 715 mmHg 55%
    03:00 +14°C° 0 mm 1 mps 715 mmHg 53%
    04:00 +14°C° 0 mm 1 mps 715 mmHg 52%
    05:00 +14°C° 0 mm 1 mps 715 mmHg 51%
    06:00 +16°C° 0 mm 1 mps 716 mmHg 44%
    07:00 +19°C° 0 mm 1 mps 716 mmHg 37%
    08:00 +22°C° 0 mm 1 mps 717 mmHg 29%
    09:00 +23°C° 0 mm 1 mps 717 mmHg 26%
    10:00 +24°C° 0 mm 1 mps 717 mmHg 24%
    11:00 +24°C° 0 mm 0 mps 717 mmHg 21%
    12:00 +26°C° 0 mm 1 mps 716 mmHg 21%
    13:00 +27°C° 0 mm 2 mps 716 mmHg 20%
    14:00 +28°C° 0 mm 2 mps 716 mmHg 20%
    15:00 +27°C° 0 mm 3 mps 715 mmHg 24%
    16:00 +26°C° 0 mm 4 mps 715 mmHg 27%
    17:00 +25°C° 0 mm 4 mps 715 mmHg 31%
    18:00 +22°C° 0 mm 3 mps 714 mmHg 37%
    19:00 +20°C° 0 mm 2 mps 714 mmHg 44%
    20:00 +19°C° 0 mm 1 mps 714 mmHg 50%
    21:00 +19°C° 0 mm 1 mps 714 mmHg 52%
    22:00 +18°C° 0 mm 1 mps 714 mmHg 53%
    23:00 +18°C° 0 mm 1 mps 714 mmHg 55%

    Tomorrow, 26 April, Friday

    Time Temperature Precipitation Wind Pressure Humidity
    00:00 +16°C° 0 mm 1 mps 714 mmHg 54%
    01:00 +16°C° 0 mm 1 mps 714 mmHg 52%
    02:00 +16°C° 0 mm 1 mps 714 mmHg 51%
    03:00 +15°C° 0 mm 1 mps 713 mmHg 49%
    04:00 +15°C° 0 mm 1 mps 713 mmHg 48%
    05:00 +15°C° 0 mm 1 mps 713 mmHg 47%
    06:00 +18°C° 0 mm 1 mps 713 mmHg 41%
    07:00 +20°C° 0 mm 1 mps 714 mmHg 35%
    08:00 +23°C° 0 mm 1 mps 714 mmHg 28%
    09:00 +24°C° 0 mm 1 mps 714 mmHg 26%
    10:00 +25°C° 0 mm 1 mps 714 mmHg 24%
    11:00 +26°C° 0 mm 1 mps 714 mmHg 21%
    12:00 +27°C° 0 mm 1 mps 714 mmHg 21%
    13:00 +27°C° 0 mm 1 mps 714 mmHg 20%
    14:00 +28°C° 0 mm 2 mps 713 mmHg 19%
    15:00 +27°C° 0 mm 3 mps 713 mmHg 22%
    16:00 +27°C° 0 mm 4 mps 712 mmHg 25%
    17:00 +26°C° 0 mm 5 mps 712 mmHg 28%
    18:00 +24°C° 0 mm 3 mps 712 mmHg 35%
    19:00 +21°C° 0 mm 2 mps 712 mmHg 42%
    20:00 +20°C° 0 mm 1 mps 712 mmHg 49%
    21:00 +20°C° 0 mm 1 mps 712 mmHg 51%
    22:00 +18°C° 0 mm 0 mps 712 mmHg 52%
    23:00 +17°C° 0 mm 0 mps 712 mmHg 53%

    Day after tomorrow, 27 April, Saturday

    Time Temperature Precipitation Wind Pressure Humidity
    00:00 +17°C° 0 mm 0 mps 711 mmHg 51%
    01:00 +17°C° 0 mm 0 mps 711 mmHg 49%
    02:00 +19°C° 0 mm 1 mps 711 mmHg 47%
    03:00 +18°C° 0 mm 1 mps 711 mmHg 45%
    04:00 +18°C° 0 mm 1 mps 711 mmHg 43%
    05:00 +18°C° 0 mm 1 mps 711 mmHg 40%
    06:00 +20°C° 0 mm 1 mps 711 mmHg 34%
    07:00 +21°C° 0 mm 2 mps 712 mmHg 28%
    08:00 +24°C° 0 mm 2 mps 712 mmHg 22%
    09:00 +26°C° 0 mm 3 mps 712 mmHg 20%
    10:00 +27°C° 0 mm 3 mps 712 mmHg 18%
    11:00 +28°C° 0 mm 3 mps 713 mmHg 17%
    12:00 +29°C° 0 mm 4 mps 712 mmHg 17%
    13:00 +29°C° 0 mm 4 mps 712 mmHg 17%
    14:00 +30°C° 0 mm 4 mps 711 mmHg 17%
    15:00 +28°C° 0 mm 5 mps 711 mmHg 22%
    16:00 +27°C° 0 mm 5 mps 711 mmHg 27%
    17:00 +26°C° 0 mm 5 mps 710 mmHg 32%
    18:00 +23°C° 0 mm 4 mps 710 mmHg 38%
    19:00 +21°C° 0 mm 3 mps 710 mmHg 43%
    20:00 +19°C° 0 mm 2 mps 711 mmHg 49%
    21:00 +20°C° 0 mm 1 mps 711 mmHg 52%
    22:00 +19°C° 0 mm 1 mps 711 mmHg 55%
    23:00 +16°C° 0 mm 0 mps 711 mmHg 58%

    28 April, Sunday

    Time Temperature Precipitation Wind Pressure Humidity
    00:00 +16°C° 0 mm 0 mps 711 mmHg 57%
    01:00 +16°C° 0 mm 1 mps 710 mmHg 57%
    02:00 +16°C° 0 mm 1 mps 710 mmHg 57%
    03:00 +16°C° 0 mm 1 mps 710 mmHg 57%
    04:00 +14°C° 0 mm 0 mps 710 mmHg 58%
    05:00 +14°C° 0 mm 0 mps 710 mmHg 58%
    06:00 +16°C° 0 mm 0 mps 710 mmHg 50%
    07:00 +18°C° 0 mm 0 mps 711 mmHg 42%
    08:00 +20°C° 0 mm 0 mps 712 mmHg 34%
    09:00 +24°C° 0 mm 1 mps 712 mmHg 30%
    10:00 +26°C° 0 mm 1 mps 712 mmHg 27%
    11:00 +27°C° 0 mm 2 mps 712 mmHg 23%
    12:00 +28°C° 0 mm 3 mps 712 mmHg 22%
    13:00 +29°C° 0 mm 4 mps 712 mmHg 22%
    14:00 +29°C° 0 mm 5 mps 711 mmHg 21%
    15:00 +28°C° 0 mm 4 mps 711 mmHg 25%
    16:00 +27°C° 0 mm 4 mps 711 mmHg 30%
    17:00 +26°C° 0 mm 4 mps 711 mmHg 34%
    18:00 +24°C° 0 mm 3 mps 711 mmHg 41%
    19:00 +21°C° 0 mm 2 mps 711 mmHg 49%
    20:00 +20°C° 0 mm 1 mps 711 mmHg 56%
    21:00 +20°C° 0 mm 1 mps 711 mmHg 58%
    22:00 +19°C° 0 mm 1 mps 711 mmHg 60%
    23:00 +16°C° 0 mm 0 mps 710 mmHg 62%

    29 April, Monday

    Time Temperature Precipitation Wind Pressure Humidity
    00:00 +16°C° 0 mm 0 mps 710 mmHg 60%
    01:00 +16°C° 0 mm 0 mps 710 mmHg 59%
    02:00 +16°C° 0 mm 0 mps 710 mmHg 57%
    03:00 +18°C° 0 mm 1 mps 710 mmHg 53%
    04:00 +18°C° 0 mm 1 mps 710 mmHg 49%
    05:00 +18°C° 0 mm 1 mps 710 mmHg 46%
    06:00 +20°C° 0 mm 1 mps 710 mmHg 39%
    07:00 +23°C° 0 mm 1 mps 711 mmHg 32%
    08:00 +25°C° 0 mm 1 mps 712 mmHg 25%
    09:00 +27°C° 0 mm 1 mps 712 mmHg 22%
    10:00 +28°C° 0 mm 1 mps 712 mmHg 20%
    11:00 +30°C° 0 mm 2 mps 712 mmHg 17%
    12:00 +30°C° 0 mm 3 mps 711 mmHg 17%
    13:00 +31°C° 0 mm 3 mps 711 mmHg 17%
    14:00 +33°C° 0 mm 4 mps 711 mmHg 17%
    15:00 +32°C° 0 mm 5 mps 711 mmHg 19%
    16:00 +30°C° 0 mm 5 mps 710 mmHg 22%
    17:00 +29°C° 0 mm 6 mps 710 mmHg 24%
    18:00 +26°C° 0 mm 4 mps 710 mmHg 29%
    19:00 +24°C° 0 mm 3 mps 710 mmHg 35%
    20:00 +22°C° 0 mm 1 mps 710 mmHg 40%
    21:00 +21°C° 0 mm 1 mps 710 mmHg 42%
    22:00 +20°C° 0 mm 1 mps 710 mmHg 45%
    23:00 +19°C° 0 mm 1 mps 710 mmHg 48%

    30 April, Tuesday

    Time Temperature Precipitation Wind Pressure Humidity
    00:00 +18°C° 0 mm 1 mps 710 mmHg 51%
    01:00 +18°C° 0 mm 1 mps 710 mmHg 54%
    02:00 +16°C° 0 mm 1 mps 710 mmHg 58%
    03:00 +14°C° 0 mm 0 mps 710 mmHg 60%
    04:00 +14°C° 0 mm 0 mps 710 mmHg 63%
    05:00 +13°C° 0 mm 0 mps 710 mmHg 65%
    06:00 +16°C° 0 mm 1 mps 710 mmHg 59%
    07:00 +19°C° 0 mm 1 mps 711 mmHg 52%
    08:00 +20°C° 0 mm 1 mps 711 mmHg 46%
    09:00 +21°C° 0 mm 2 mps 711 mmHg 39%
    10:00 +24°C° 0 mm 2 mps 711 mmHg 32%
    11:00 +25°C° 0 mm 3 mps 711 mmHg 26%
    12:00 +26°C° 0 mm 4 mps 711 mmHg 25%
    13:00 +27°C° 0 mm 5 mps 711 mmHg 24%
    14:00 +27°C° 0 mm 6 mps 711 mmHg 23%
    15:00 +26°C° 0 mm 6 mps 711 mmHg 28%
    16:00 +25°C° 0 mm 5 mps 711 mmHg 32%
    17:00 +23°C° 0 mm 5 mps 710 mmHg 37%
    18:00 +21°C° 0 mm 4 mps 710 mmHg 46%
    19:00 +19°C° 0 mm 3 mps 710 mmHg 54%
    20:00 +17°C° 0 mm 2 mps 710 mmHg 63%
    21:00 +16°C° 0 mm 1 mps 710 mmHg 68%
    22:00 +16°C° 0 mm 1 mps 710 mmHg 73%
    23:00 +15°C° 0 mm 1 mps 710 mmHg 78%
    Show more